Langdon, ND

12:36 PM CDT on October 19, 2017 (GMT -0500)
Langdon

Weather History for KD55 - June, 2013

Change the Weather History Date:

Friday, June 14, 2013

  Actual Average (KDVL) Record (KDVL)
Temperature  
Mean Temperature 67 °F -  
Max Temperature 75 °F 72 °F 95 °F (1973)
Min Temperature 57 °F 53 °F 38 °F (1968)
Cooling Degree Days 2    
Growing Degree Days 17 (Base 50)    
Moisture  
Dew Point 55 °F    
Average Humidity 68    
Maximum Humidity 94    
Minimum Humidity 50    
Precipitation  
Precipitation 0.00 in - - ()
Sea Level Pressure  
Sea Level Pressure 29.87 in    
Wind  
Wind Speed 14 mph (SSE)    
Max Wind Speed 26 mph    
Max Gust Speed 36 mph    
Visibility 10 miles    
Events      
Averages and records for this station are not official NWS values.
T = Trace of Precipitation, MM = Missing Value Source: NWS Daily Summary

Daily Weather History Graph

Daily Weather History Graph

Search for Another Location

Airport or City:

Trip Planner

Search our weather history database for the weather conditions in past years. The results will help you decide how hot, cold, wet, or windy it might be!

Date:

Astronomy

Jun. 14, 2013 Rise Set
Actual Time 5:29 AM CDT 9:38 PM CDT
Civil Twilight 4:47 AM CDT 10:20 PM CDT
Nautical Twilight 3:47 AM CDT 11:20 PM CDT
Astronomical Twilight 2:06 AM CDT 1:01 AM CDT
Moon 11:32 AM CDT (6/14) 12:21 AM CDT (6/14)
Length of Visible Light 17h 32m
Length of Day
16h 08m
Waxing Crescent, 30% of the Moon is Illuminated
Jun 14
Waxing Crescent
Jun 16
First Quarter
Jun 23
Full
Jun 29
Last Quarter
Jul 8
New

Hourly Weather History & Observations

Time (CDT) Temp. Dew Point Humidity Pressure Visibility Wind Dir Wind Speed Gust Speed Precip Events Conditions
12:15 AM 62.6 °F 48.2 °F 59% 30.01 in 10.0 mi SE 11.5 mph - N/A   Clear
12:35 AM 60.8 °F 48.2 °F 63% 30.01 in 10.0 mi SE 10.4 mph - N/A   Clear
12:55 AM 59.0 °F 48.2 °F 67% 30.00 in 10.0 mi ESE 10.4 mph - N/A   Clear
1:15 AM 60.8 °F 48.2 °F 63% 30.00 in 10.0 mi SE 11.5 mph - N/A   Clear
1:35 AM 60.8 °F 48.2 °F 63% 30.00 in 10.0 mi SE 12.7 mph - N/A   Clear
1:55 AM 60.8 °F 50.0 °F 68% 29.99 in 10.0 mi ESE 10.4 mph - N/A   Clear
2:15 AM 60.8 °F 50.0 °F 68% 29.98 in 10.0 mi SE 12.7 mph - N/A   Scattered Clouds
2:35 AM 60.8 °F 50.0 °F 68% 29.98 in 10.0 mi SE 12.7 mph - N/A   Scattered Clouds
2:55 AM 60.8 °F 50.0 °F 68% 29.97 in 10.0 mi ESE 10.4 mph - N/A   Scattered Clouds
3:15 AM 59.0 °F 51.8 °F 77% 29.96 in 10.0 mi SE 10.4 mph - N/A   Scattered Clouds
3:35 AM 59.0 °F 51.8 °F 77% 29.95 in 10.0 mi ESE 10.4 mph - N/A   Scattered Clouds
3:55 AM 60.8 °F 51.8 °F 72% 29.95 in 10.0 mi SE 10.4 mph - N/A   Overcast
4:15 AM 59.0 °F 51.8 °F 77% 29.95 in 10.0 mi SE 10.4 mph - N/A   Mostly Cloudy
4:35 AM 59.0 °F 53.6 °F 82% 29.97 in 10.0 mi East 6.9 mph - N/A   Overcast
4:55 AM 59.0 °F 53.6 °F 82% 29.96 in 10.0 mi East 6.9 mph - N/A   Mostly Cloudy
5:15 AM 59.0 °F 53.6 °F 82% 29.95 in 10.0 mi ESE 10.4 mph - N/A   Scattered Clouds
5:35 AM 59.0 °F 53.6 °F 82% 29.95 in 10.0 mi ESE 10.4 mph - N/A   Mostly Cloudy
5:55 AM 59.0 °F 53.6 °F 82% 29.95 in 10.0 mi SE 10.4 mph - N/A   Partly Cloudy
6:15 AM 59.0 °F 53.6 °F 82% 29.95 in 10.0 mi SE 11.5 mph - N/A   Mostly Cloudy
6:35 AM 59.0 °F 53.6 °F 82% 29.95 in 10.0 mi SE 11.5 mph - N/A   Overcast
6:55 AM 59.0 °F 55.4 °F 88% 29.94 in 10.0 mi SE 12.7 mph - N/A   Overcast
7:15 AM 59.0 °F 55.4 °F 88% 29.94 in 10.0 mi SE 15.0 mph - N/A   Overcast
7:35 AM 60.8 °F 55.4 °F 82% 29.94 in 10.0 mi SE 13.8 mph - N/A   Overcast
7:55 AM 62.6 °F 55.4 °F 77% 29.93 in 10.0 mi SE 15.0 mph - N/A   Overcast
8:15 AM 64.4 °F 55.4 °F 73% 29.93 in 10.0 mi SE 17.3 mph 21.9 mph N/A   Scattered Clouds
8:35 AM 64.4 °F 55.4 °F 73% 29.95 in 10.0 mi SSE 18.4 mph 24.2 mph N/A   Mostly Cloudy
8:55 AM 64.4 °F 55.4 °F 73% 29.94 in 10.0 mi SSE 17.3 mph 23.0 mph N/A   Overcast
9:15 AM 66.2 °F 55.4 °F 68% 29.92 in 10.0 mi SSE 21.9 mph 25.3 mph N/A   Mostly Cloudy
9:35 AM 66.2 °F 55.4 °F 68% 29.91 in 10.0 mi SSE 20.7 mph 26.5 mph N/A   Mostly Cloudy
9:55 AM 68.0 °F 55.4 °F 64% 29.89 in 10.0 mi SSE 24.2 mph 32.2 mph N/A   Scattered Clouds
10:15 AM 69.8 °F 57.2 °F 64% 29.87 in 10.0 mi SSE 24.2 mph 32.2 mph N/A   Scattered Clouds
10:35 AM 68.0 °F 57.2 °F 68% 29.85 in 10.0 mi SSE 24.2 mph 34.5 mph N/A   Scattered Clouds
10:55 AM 69.8 °F 55.4 °F 60% 29.88 in 10.0 mi South 26.5 mph 35.7 mph N/A   Clear
11:15 AM 71.6 °F 57.2 °F 60% 29.86 in 10.0 mi SSE 21.9 mph 28.8 mph N/A   Clear
11:35 AM 73.4 °F 57.2 °F 57% 29.84 in 10.0 mi SSE 21.9 mph 28.8 mph N/A   Clear
11:55 AM 73.4 °F 57.2 °F 57% 29.84 in 10.0 mi SSE 24.2 mph - N/A   Clear
12:15 PM 75.2 °F 57.2 °F 53% 29.83 in 10.0 mi SSE 21.9 mph 32.2 mph N/A   Clear
12:35 PM 73.4 °F 57.2 °F 57% 29.84 in 10.0 mi SSE 26.5 mph 33.4 mph N/A   Scattered Clouds
12:55 PM 73.4 °F 55.4 °F 53% 29.86 in 10.0 mi SSE 20.7 mph 27.6 mph N/A   Mostly Cloudy
1:15 PM 73.4 °F 57.2 °F 57% 29.83 in 10.0 mi SE 20.7 mph 26.5 mph N/A   Partly Cloudy
1:35 PM 73.4 °F 55.4 °F 53% 29.86 in 10.0 mi South 21.9 mph 26.5 mph N/A   Scattered Clouds
1:55 PM 71.6 °F 57.2 °F 60% 29.85 in 10.0 mi South 18.4 mph 24.2 mph N/A   Overcast
2:15 PM 71.6 °F 57.2 °F 60% 29.85 in 10.0 mi SSE 17.3 mph 23.0 mph N/A   Overcast
2:35 PM 71.6 °F 57.2 °F 60% 29.84 in 10.0 mi SSE 17.3 mph 24.2 mph N/A   Overcast
2:55 PM 73.4 °F 57.2 °F 57% 29.82 in 10.0 mi SSE 24.2 mph 28.8 mph N/A   Overcast
3:15 PM 75.2 °F 55.4 °F 50% 29.82 in 10.0 mi SSE 23.0 mph 31.1 mph N/A   Mostly Cloudy
3:35 PM 73.4 °F 55.4 °F 53% 29.81 in 10.0 mi SSE 21.9 mph 31.1 mph N/A   Mostly Cloudy
3:55 PM 71.6 °F 57.2 °F 60% 29.80 in 10.0 mi SSE 21.9 mph 25.3 mph N/A   Mostly Cloudy
4:15 PM 71.6 °F 57.2 °F 60% 29.79 in 10.0 mi South 20.7 mph 27.6 mph N/A   Overcast
4:35 PM 69.8 °F 57.2 °F 64% 29.80 in 10.0 mi South 16.1 mph - N/A   Overcast
4:55 PM 71.6 °F 57.2 °F 60% 29.80 in 10.0 mi South 17.3 mph 20.7 mph N/A   Overcast
5:15 PM 71.6 °F 57.2 °F 60% 29.80 in 10.0 mi South 16.1 mph 20.7 mph N/A   Overcast
5:35 PM 71.6 °F 57.2 °F 60% 29.79 in 10.0 mi South 11.5 mph 21.9 mph N/A   Overcast
5:55 PM 71.6 °F 57.2 °F 60% 29.79 in 10.0 mi South 12.7 mph - N/A   Overcast
6:15 PM 71.6 °F 57.2 °F 60% 29.78 in 10.0 mi South 10.4 mph - N/A   Overcast
6:35 PM 71.6 °F 59.0 °F 64% 29.78 in 10.0 mi South 10.4 mph - N/A   Overcast
6:55 PM 71.6 °F 59.0 °F 64% 29.77 in 10.0 mi SSE 9.2 mph - N/A   Overcast
7:15 PM 71.6 °F 59.0 °F 64% 29.77 in 10.0 mi SSE 9.2 mph - N/A   Overcast
7:35 PM 69.8 °F 59.0 °F 68% 29.77 in 10.0 mi SSE 9.2 mph - N/A   Overcast
7:55 PM 69.8 °F 60.8 °F 73% 29.77 in 10.0 mi South 10.4 mph - N/A   Overcast
8:15 PM 69.8 °F 60.8 °F 73% 29.77 in 10.0 mi SSW 8.1 mph - N/A   Overcast
8:35 PM 71.6 °F 62.6 °F 73% 29.77 in 10.0 mi SSW 12.7 mph - N/A   Overcast
8:55 PM 71.6 °F 62.6 °F 73% 29.77 in 10.0 mi SSW 11.5 mph - N/A   Scattered Clouds
9:15 PM 68.0 °F 62.6 °F 83% 29.77 in 10.0 mi SW 10.4 mph - N/A   Partly Cloudy
9:35 PM 66.2 °F 62.6 °F 88% 29.77 in 10.0 mi WSW 9.2 mph - N/A   Clear
9:55 PM 66.2 °F 62.6 °F 88% 29.78 in 10.0 mi WSW 8.1 mph - N/A   Clear
10:15 PM 64.4 °F 62.6 °F 94% 29.79 in 10.0 mi WSW 17.3 mph 21.9 mph N/A   Clear
10:35 PM 66.2 °F 55.4 °F 68% 29.80 in 10.0 mi West 18.4 mph 24.2 mph N/A   Clear
10:55 PM 64.4 °F 50.0 °F 59% 29.81 in 10.0 mi West 17.3 mph - N/A   Clear
11:15 PM 62.6 °F 50.0 °F 63% 29.82 in 10.0 mi West 15.0 mph - N/A   Clear
11:35 PM 59.0 °F 50.0 °F 72% 29.82 in 10.0 mi West 9.2 mph - N/A   Clear
11:55 PM 57.2 °F 50.0 °F 77% 29.82 in 10.0 mi West 9.2 mph - N/A   Clear